Location: ???????
(55.3754°N, 39.3545°E)
Time: 18:23:49
(UTC+00:00)

Meteor 2-10 - Pass Details

Date: 14 April 2026
Orbit: 737 x 865 km, 81.2° (Epoch: 19 May)

Event Time Altitude Azimuth Distance (km) Brightness Sun altitude
Rises 22:30:19 0° 346° (NNW) 3,275 8.2 -23.4°
Reaches altitude 10° 22:32:41 10° 350° (N) 2,362 7.4 -23.3°
Maximum altitude 22:37:59 63° 71° (ENE) 903 4.4 -23.1°
Enters shadow 22:40:25 33° 141° (SE) 1,360 5.0 -23.0°
